Location: Emory University Observatory
(33.7903°N, 84.3267°W)
Time: 09:18:35
(UTC-05:00)

Hubble Space Telescope - Pass Details

Date: 08 October 2017
Orbit: 538 x 541 km, 28.5° (Epoch: 11 December)

Event Time Altitude Azimuth Distance (km) Brightness Sun altitude
Exits shadow 07:03:05 - 253° (WSW) 1,896 3.0 -7.9°
Reaches altitude 10° 07:03:25 10° 251° (WSW) 1,788 2.8 -7.8°
Maximum altitude 07:06:49 25° 195° (SSW) 1,112 2.3 -7.1°
Drops below altitude 10° 07:10:13 10° 140° (SE) 1,785 4.1 -6.4°
Sets 07:12:46 0° 126° (SE) 2,675 5.4 -5.9°
